| time (UTC) | temp F | wind direction | speed MPH | gust MPH | rain 1hr in | rain 24hr in | rain mn in | humidity % | barometer mb |
| 20260505051003 | 61 | 222 | 14.0 | 32.0 | 0.00 | 0.02 | 0.00 | 71 | 1002.9 |
| 20260505050503 | 62 | 229 | 16.0 | 37.0 | 0.00 | 0.02 | 0.00 | 70 | 1003.1 |
| 20260505041506 | 64 | 217 | 10.0 | 28.0 | 0.00 | 0.02 | 0.00 | 74 | 1002.6 |
| 20260505041003 | 64 | 210 | 13.0 | 28.0 | 0.00 | 0.02 | 0.00 | 72 | 1002.5 |
| 20260505040504 | 64 | 207 | 13.0 | 32.0 | 0.00 | 0.02 | 0.00 | 69 | 1002.4 |
| 20260505040004 | 64 | 205 | 11.0 | 32.0 | 0.00 | 0.02 | 0.00 | 69 | 1002.5 |
| 20260505035505 | 64 | 201 | 9.0 | 19.0 | 0.00 | 0.02 | 0.02 | 69 | 1002.6 |
| 20260505035003 | 64 | 195 | 7.0 | 18.0 | 0.00 | 0.02 | 0.02 | 70 | 1002.4 |
| 20260505034503 | 63 | 192 | 6.0 | 15.0 | 0.00 | 0.02 | 0.02 | 70 | 1002.3 |
| 20260505034003 | 63 | 194 | 6.0 | 15.0 | 0.00 | 0.02 | 0.02 | 71 | 1002.3 |
| 20260505033503 | 62 | 188 | 6.0 | 13.0 | 0.00 | 0.02 | 0.02 | 71 | 1002.2 |
| 20260505033003 | 62 | 185 | 5.0 | 13.0 | 0.01 | 0.02 | 0.02 | 71 | 1002.3 |
| 20260505032503 | 62 | 190 | 5.0 | 10.0 | 0.01 | 0.02 | 0.02 | 71 | 1002.4 |
| 20260505032003 | 61 | 206 | 4.0 | 10.0 | 0.01 | 0.02 | 0.02 | 71 | 1002.4 |
| 20260505031714 | 61 | 206 | 4.0 | 10.0 | 0.01 | 0.02 | 0.02 | 71 | 1002.6 |
| 20260505031005 | 61 | 189 | 3.0 | 12.0 | 0.02 | 0.02 | 0.02 | 71 | 1002.6 |
| 20260505030714 | 61 | 194 | 3.0 | 12.0 | 0.02 | 0.02 | 0.02 | 71 | 1002.7 |
| 20260505030003 | 60 | 208 | 3.0 | 8.0 | 0.02 | 0.02 | 0.02 | 70 | 1002.8 |
| 20260505025503 | 60 | 218 | 3.0 | 12.0 | 0.02 | 0.02 | 0.02 | 70 | 1002.8 |
| 20260505025004 | 60 | 221 | 4.0 | 13.0 | 0.02 | 0.02 | 0.02 | 70 | 1002.9 |
| 20260505024503 | 60 | 216 | 5.0 | 14.0 | 0.02 | 0.02 | 0.02 | 70 | 1003.0 |
| 20260505024003 | 60 | 202 | 5.0 | 17.0 | 0.02 | 0.02 | 0.02 | 69 | 1003.0 |
| 20260505023505 | 60 | 194 | 6.0 | 17.0 | 0.02 | 0.02 | 0.02 | 70 | 1002.9 |
| 20260505023005 | 60 | 193 | 6.0 | 14.0 | 0.01 | 0.01 | 0.01 | 71 | 1002.9 |
| 20260505022503 | 60 | 179 | 8.0 | 20.0 | 0.01 | 0.01 | 0.01 | 70 | 1002.9 |
| 20260505022003 | 60 | 187 | 11.0 | 28.0 | 0.01 | 0.01 | 0.01 | 69 | 1002.8 |
| 20260505021503 | 61 | 202 | 8.0 | 28.0 | 0.01 | 0.01 | 0.01 | 66 | 1003.0 |
| 20260505021003 | 60 | 194 | 4.0 | 27.0 | 0.00 | 0.00 | 0.00 | 62 | 1003.7 |
| 20260505020503 | 60 | 168 | 4.0 | 8.0 | 0.00 | 0.00 | 0.00 | 58 | 1003.4 |
| 20260505020003 | 60 | 166 | 4.0 | 9.0 | 0.00 | 0.00 | 0.00 | 56 | 1003.0 |
| 20260505015504 | 60 | 171 | 4.0 | 9.0 | 0.00 | 0.00 | 0.00 | 56 | 1002.7 |
| 20260505015004 | 60 | 177 | 4.0 | 9.0 | 0.00 | 0.00 | 0.00 | 56 | 1002.8 |
| 20260505014503 | 60 | 180 | 4.0 | 9.0 | 0.00 | 0.00 | 0.00 | 56 | 1002.8 |
| 20260505014005 | 60 | 181 | 3.0 | 8.0 | 0.00 | 0.00 | 0.00 | 56 | 1002.8 |
| 20260505013503 | 60 | 174 | 3.0 | 6.0 | 0.00 | 0.00 | 0.00 | 56 | 1002.7 |
| 20260505013004 | 60 | 170 | 4.0 | 12.0 | 0.00 | 0.00 | 0.00 | 57 | 1002.7 |
| 20260505012504 | 60 | 172 | 5.0 | 12.0 | 0.00 | 0.00 | 0.00 | 56 | 1002.9 |
| 20260505012003 | 60 | 188 | 4.0 | 9.0 | 0.00 | 0.00 | 0.00 | 57 | 1003.0 |
| 20260505011503 | 60 | 192 | 4.0 | 8.0 | 0.00 | 0.00 | 0.00 | 57 | 1003.1 |
| 20260505011003 | 60 | 179 | 4.0 | 10.0 | 0.00 | 0.00 | 0.00 | 56 | 1003.0 |
| 20260505010503 | 60 | 193 | 5.0 | 10.0 | 0.00 | 0.00 | 0.00 | 56 | 1002.9 |
| 20260505010003 | 60 | 184 | 5.0 | 13.0 | 0.00 | 0.00 | 0.00 | 57 | 1002.9 |
| 20260505005505 | 61 | 167 | 5.0 | 12.0 | 0.00 | 0.00 | 0.00 | 56 | 1002.8 |
| 20260505005004 | 61 | 179 | 5.0 | 9.0 | 0.00 | 0.00 | 0.00 | 55 | 1002.9 |
| 20260505004715 | 62 | 180 | 5.0 | 8.0 | 0.00 | 0.00 | 0.00 | 54 | 1002.9 |
| 20260505004003 | 62 | 177 | 5.0 | 13.0 | 0.00 | 0.00 | 0.00 | 53 | 1002.9 |
| 20260505003503 | 63 | 195 | 4.0 | 12.0 | 0.00 | 0.00 | 0.00 | 52 | 1003.0 |
| 20260505003003 | 64 | 190 | 4.0 | 9.0 | 0.00 | 0.00 | 0.00 | 52 | 1003.0 |
| 20260505002503 | 64 | 171 | 5.0 | 9.0 | 0.00 | 0.00 | 0.00 | 50 | 1003.0 |
| 20260505002003 | 65 | 180 | 5.0 | 9.0 | 0.00 | 0.00 | 0.00 | 48 | 1003.0 |
| 20260505001715 | 65 | 186 | 4.0 | 9.0 | 0.00 | 0.00 | 0.00 | 47 | 1003.0 |
| 20260505001214 | 66 | 198 | 3.0 | 8.0 | 0.00 | 0.00 | 0.00 | 47 | 1002.9 |
| 20260505000503 | 67 | 192 | 4.0 | 8.0 | 0.00 | 0.00 | 0.00 | 46 | 1003.0 |
| 20260505000005 | 67 | 183 | 5.0 | 9.0 | 0.00 | 0.00 | 0.00 | 45 | 1003.0 |
| 20260504235503 | 68 | 186 | 5.0 | 9.0 | 0.00 | 0.00 | 0.00 | 45 | 1002.9 |
| 20260504235006 | 69 | 214 | 6.0 | 15.0 | 0.00 | 0.00 | 0.00 | 44 | 1003.0 |
| 20260504234504 | 69 | 224 | 7.0 | 15.0 | 0.00 | 0.00 | 0.00 | 41 | 1003.0 |
| 20260504234003 | 69 | 223 | 6.0 | 13.0 | 0.00 | 0.00 | 0.00 | 41 | 1003.0 |
| 20260504233503 | 69 | 225 | 7.0 | 19.0 | 0.00 | 0.00 | 0.00 | 41 | 1002.9 |
| 20260504233003 | 69 | 236 | 9.0 | 20.0 | 0.00 | 0.00 | 0.00 | 41 | 1002.9 |
| 20260504232503 | 69 | 237 | 10.0 | 22.0 | 0.00 | 0.00 | 0.00 | 40 | 1003.0 |
| 20260504232003 | 70 | 235 | 11.0 | 23.0 | 0.00 | 0.00 | 0.00 | 41 | 1003.0 |
| 20260504231503 | 70 | 237 | 11.0 | 24.0 | 0.00 | 0.00 | 0.00 | 42 | 1003.0 |
| 20260504231213 | 70 | 237 | 11.0 | 24.0 | 0.00 | 0.00 | 0.00 | 43 | 1003.1 |
| 20260504230503 | 70 | 241 | 9.0 | 20.0 | 0.00 | 0.00 | 0.00 | 44 | 1003.0 |
| 20260504230005 | 69 | 237 | 10.0 | 20.0 | 0.00 | 0.00 | 0.00 | 44 | 1003.2 |
| 20260504225506 | 69 | 233 | 10.0 | 20.0 | 0.00 | 0.00 | 0.00 | 44 | 1003.2 |
| 20260504225004 | 69 | 233 | 10.0 | 18.0 | 0.00 | 0.00 | 0.00 | 43 | 1003.2 |
| 20260504224503 | 69 | 236 | 9.0 | 19.0 | 0.00 | 0.00 | 0.00 | 44 | 1003.3 |
| 20260504224215 | 69 | 239 | 9.0 | 19.0 | 0.00 | 0.00 | 0.00 | 44 | 1003.2 |
| 20260504223503 | 70 | 244 | 10.0 | 20.0 | 0.00 | 0.00 | 0.00 | 43 | 1003.1 |
| 20260504223215 | 70 | 244 | 11.0 | 20.0 | 0.00 | 0.00 | 0.00 | 42 | 1003.2 |
| 20260504222505 | 70 | 237 | 10.0 | 22.0 | 0.00 | 0.00 | 0.00 | 42 | 1003.1 |
| 20260504222003 | 70 | 238 | 9.0 | 22.0 | 0.00 | 0.00 | 0.00 | 41 | 1003.2 |
| 20260504221503 | 70 | 233 | 12.0 | 26.0 | 0.00 | 0.00 | 0.00 | 40 | 1003.1 |
| 20260504221003 | 70 | 229 | 12.0 | 26.0 | 0.00 | 0.00 | 0.00 | 39 | 1003.2 |
| 20260504220712 | 71 | 227 | 11.0 | 24.0 | 0.00 | 0.00 | 0.00 | 38 | 1003.1 |
| 20260504220003 | 71 | 234 | 11.0 | 19.0 | 0.00 | 0.00 | 0.00 | 36 | 1003.0 |
| 20260504215505 | 71 | 236 | 12.0 | 20.0 | 0.00 | 0.00 | 0.00 | 36 | 1003.0 |
| 20260504215003 | 71 | 235 | 12.0 | 24.0 | 0.00 | 0.00 | 0.00 | 35 | 1003.0 |
| 20260504214714 | 71 | 231 | 13.0 | 24.0 | 0.00 | 0.00 | 0.00 | 36 | 1003.0 |
| 20260504214003 | 71 | 229 | 15.0 | 31.0 | 0.00 | 0.00 | 0.00 | 36 | 1003.0 |
| 20260504213504 | 71 | 235 | 13.0 | 31.0 | 0.00 | 0.00 | 0.00 | 36 | 1003.2 |
| 20260504213003 | 72 | 242 | 12.0 | 27.0 | 0.00 | 0.00 | 0.00 | 36 | 1003.0 |
| 20260504212503 | 72 | 238 | 12.0 | 27.0 | 0.00 | 0.00 | 0.00 | 36 | 1003.1 |
| 20260504212003 | 71 | 235 | 11.0 | 22.0 | 0.00 | 0.00 | 0.00 | 36 | 1002.9 |
| 20260504211504 | 71 | 228 | 11.0 | 23.0 | 0.00 | 0.00 | 0.00 | 40 | 1003.1 |
| 20260504211003 | 71 | 219 | 10.0 | 23.0 | 0.00 | 0.00 | 0.00 | 41 | 1003.2 |
| 20260504210714 | 71 | 218 | 9.0 | 20.0 | 0.00 | 0.00 | 0.00 | 42 | 1003.3 |
| 20260504210005 | 71 | 229 | 10.0 | 20.0 | 0.00 | 0.00 | 0.00 | 43 | 1003.3 |
| 20260504205503 | 71 | 222 | 11.0 | 26.0 | 0.00 | 0.00 | 0.00 | 42 | 1003.3 |
| 20260504205005 | 71 | 221 | 13.0 | 26.0 | 0.00 | 0.00 | 0.00 | 43 | 1003.3 |
| 20260504204507 | 71 | 227 | 14.0 | 24.0 | 0.00 | 0.00 | 0.00 | 43 | 1003.5 |
| 20260504204003 | 71 | 232 | 12.0 | 24.0 | 0.00 | 0.00 | 0.00 | 42 | 1003.7 |
| 20260504203503 | 71 | 231 | 10.0 | 20.0 | 0.00 | 0.00 | 0.00 | 43 | 1003.6 |
| 20260504203003 | 71 | 218 | 11.0 | 28.0 | 0.00 | 0.00 | 0.00 | 44 | 1003.5 |
| 20260504202503 | 71 | 217 | 13.0 | 28.0 | 0.00 | 0.00 | 0.00 | 43 | 1003.5 |
| 20260504202214 | 71 | 222 | 12.0 | 28.0 | 0.00 | 0.00 | 0.00 | 43 | 1003.7 |
| 20260504201713 | 71 | 230 | 11.0 | 26.0 | 0.00 | 0.00 | 0.00 | 43 | 1003.7 |
| 20260504201003 | 70 | 228 | 10.0 | 23.0 | 0.00 | 0.00 | 0.00 | 43 | 1003.7 |
| 20260504200503 | 70 | 227 | 10.0 | 23.0 | 0.00 | 0.00 | 0.00 | 44 | 1003.8 |
| 20260504200003 | 71 | 227 | 10.0 | 22.0 | 0.00 | 0.00 | 0.00 | 43 | 1003.8 |
| 20260504195713 | 71 | 227 | 11.0 | 23.0 | 0.00 | 0.00 | 0.00 | 44 | 1004.0 |
| 20260504195214 | 71 | 223 | 11.0 | 23.0 | 0.00 | 0.00 | 0.00 | 45 | 1004.0 |
| 20260504194505 | 71 | 213 | 10.0 | 24.0 | 0.00 | 0.00 | 0.00 | 43 | 1004.0 |
| 20260504194214 | 71 | 213 | 11.0 | 24.0 | 0.00 | 0.00 | 0.00 | 46 | 1004.1 |
| 20260504193503 | 70 | 220 | 11.0 | 24.0 | 0.00 | 0.00 | 0.00 | 45 | 1004.3 |
| 20260504193006 | 70 | 221 | 11.0 | 22.0 | 0.00 | 0.00 | 0.00 | 46 | 1004.4 |
| 20260504192503 | 70 | 229 | 10.0 | 22.0 | 0.00 | 0.00 | 0.00 | 45 | 1004.3 |
| 20260504192005 | 70 | 231 | 12.0 | 29.0 | 0.00 | 0.00 | 0.00 | 46 | 1004.6 |
| 20260504191503 | 70 | 230 | 13.0 | 29.0 | 0.00 | 0.00 | 0.00 | 45 | 1004.6 |
| 20260504191214 | 70 | 230 | 13.0 | 29.0 | 0.00 | 0.00 | 0.00 | 46 | 1004.7 |
| 20260504190503 | 70 | 236 | 12.0 | 24.0 | 0.00 | 0.00 | 0.00 | 45 | 1004.7 |
| 20260504190003 | 69 | 232 | 15.0 | 24.0 | 0.00 | 0.00 | 0.00 | 45 | 1004.9 |
| 20260504185504 | 69 | 233 | 15.0 | 33.0 | 0.00 | 0.00 | 0.00 | 47 | 1004.8 |
| 20260504185003 | 69 | 229 | 15.0 | 33.0 | 0.00 | 0.00 | 0.00 | 46 | 1004.9 |
| 20260504184505 | 69 | 229 | 14.0 | 28.0 | 0.00 | 0.00 | 0.00 | 45 | 1004.8 |
| 20260504184003 | 69 | 232 | 13.0 | 27.0 | 0.00 | 0.00 | 0.00 | 46 | 1005.0 |
| 20260504183503 | 69 | 228 | 12.0 | 26.0 | 0.00 | 0.00 | 0.00 | 47 | 1005.1 |
| 20260504183004 | 69 | 228 | 13.0 | 27.0 | 0.00 | 0.00 | 0.00 | 46 | 1005.0 |
| 20260504182713 | 69 | 224 | 12.0 | 27.0 | 0.00 | 0.00 | 0.00 | 48 | 1005.1 |
| 20260504182214 | 68 | 223 | 11.0 | 27.0 | 0.00 | 0.00 | 0.00 | 48 | 1005.2 |
| 20260504181503 | 68 | 227 | 13.0 | 24.0 | 0.00 | 0.00 | 0.00 | 50 | 1005.2 |
| 20260504181003 | 68 | 231 | 14.0 | 29.0 | 0.00 | 0.00 | 0.00 | 50 | 1005.2 |
| 20260504180712 | 68 | 234 | 15.0 | 29.0 | 0.00 | 0.00 | 0.00 | 48 | 1005.4 |
| 20260504180003 | 68 | 233 | 13.0 | 26.0 | 0.00 | 0.00 | 0.00 | 48 | 1005.5 |
| 20260504175505 | 68 | 231 | 10.0 | 26.0 | 0.00 | 0.00 | 0.00 | 50 | 1005.6 |
| 20260504175003 | 68 | 243 | 11.0 | 23.0 | 0.00 | 0.00 | 0.00 | 50 | 1005.6 |
| 20260504174503 | 67 | 245 | 12.0 | 27.0 | 0.00 | 0.00 | 0.00 | 50 | 1005.7 |
| 20260504174003 | 67 | 244 | 12.0 | 27.0 | 0.00 | 0.00 | 0.00 | 50 | 1005.7 |
| 20260504173505 | 67 | 241 | 13.0 | 24.0 | 0.00 | 0.00 | 0.00 | 51 | 1005.7 |
| 20260504173003 | 66 | 242 | 14.0 | 29.0 | 0.00 | 0.00 | 0.00 | 51 | 1005.7 |
| 20260504172504 | 66 | 239 | 13.0 | 28.0 | 0.00 | 0.00 | 0.00 | 51 | 1005.8 |
| 20260504172005 | 66 | 234 | 12.0 | 27.0 | 0.00 | 0.00 | 0.00 | 52 | 1005.9 |
| 20260504171505 | 66 | 230 | 14.0 | 32.0 | 0.00 | 0.00 | 0.00 | 53 | 1005.8 |
| 20260504171003 | 65 | 227 | 15.0 | 32.0 | 0.00 | 0.00 | 0.00 | 53 | 1005.8 |
| 20260504170714 | 65 | 230 | 16.0 | 32.0 | 0.00 | 0.00 | 0.00 | 52 | 1005.9 |
| 20260504150503 | 62 | 227 | 15.0 | 40.0 | 0.00 | 0.00 | 0.00 | 54 | 1006.8 |
| 20260504141003 | 60 | 226 | 17.0 | 37.0 | 0.00 | 0.00 | 0.00 | 55 | 1006.4 |
| 20260504140505 | 60 | 224 | 17.0 | 33.0 | 0.00 | 0.00 | 0.00 | 54 | 1006.5 |
| 20260504130503 | 58 | 219 | 14.0 | 31.0 | 0.00 | 0.00 | 0.00 | 56 | 1006.8 |
| 20260504110503 | 51 | 203 | 6.0 | 12.0 | 0.00 | 0.00 | 0.00 | 64 | 1007.1 |
| 20260504100503 | 51 | 207 | 6.0 | 14.0 | 0.00 | 0.00 | 0.00 | 63 | 1006.8 |
| 20260504082003 | 50 | 195 | 4.0 | 10.0 | 0.00 | 0.00 | 0.00 | 65 | 1007.7 |
| 20260504081503 | 49 | 203 | 5.0 | 10.0 | 0.00 | 0.00 | 0.00 | 67 | 1007.8 |
| 20260504081005 | 49 | 215 | 5.0 | 10.0 | 0.00 | 0.00 | 0.00 | 68 | 1007.8 |
| 20260504080503 | 48 | 220 | 5.0 | 10.0 | 0.00 | 0.00 | 0.00 | 70 | 1007.8 |